Tracking 27124 objects as of 1-Apr-2023
HD Live streaming from Space Station
objects crossing your sky now

ATLAS F DEB

Track ATLAS F DEB now!
10-day predictions


NORAD ID: 29197
Int'l Code: 1978-047C
Perigee: 586.6 km
Apogee: 5,582.6 km
Inclination: 63.8 °
Period: 152.5 minutes
Semi major axis: 9455 km
RCS: 0.105 m2 (medium)
Launch date: May 13, 1978
Source: United States (US)
Launch site: AIR FORCE WESTERN TEST RANGE (AFWTR)

Note: This is SATELLITE DEBRIS
Your satellite tracking list
Your tracking list is empty




NASA's NSSDC Master Catalog

Two Line Element Set (TLE):
1 29197U 78047C   23090.60740431  .00041956  00000-0  45396-1 0  9996
2 29197  63.7782 205.0082 2641772  53.3580  24.1875  9.44211257638237
Source of the keplerian elements: AFSPC